Location: Thompson
(55.7500°N, 97.8670°W)
Time: 19:52:48
(UTC-05:00)

Daily predictions for brighter satellites

Satellite Brightness Start Highest point End
(mag) Time Altitude Azimuth Time Altitude Azimuth Time Altitude Azimuth
Cosmos 1666 Rocket 3.6 23:18:56 10° S 23:23:20 77° E 23:27:48 10° NNE
Cosmos 1745 Rocket 4.2 23:18:38 10° SSE 23:24:41 56° E 23:30:42 10° NNE
ATLAS 5 CENTAUR R/B 3.1 23:20:07 10° WSW 23:25:10 53° NNW 23:30:43 10° NE
CZ-4C R/B 3.6 23:19:21 10° WNW 23:25:30 48° NNE 23:32:28 10° E
Cosmos 2058 3.1 23:21:51 10° SSW 23:25:57 76° WNW 23:30:05 10° N
Cosmos 2298 Rocket 4.3 23:24:54 10° S 23:30:02 52° ESE 23:35:13 10° NE
Cosmos 2297 Rocket 3.8 23:26:35 10° SE 23:30:09 17° E 23:33:43 10° ENE
Cosmos 1437 4.1 23:29:08 10° SW 23:32:16 41° WNW 23:35:26 10° N
Cosmos 2219 Rocket 2.4 23:26:58 10° NW 23:32:31 64° WSW 23:38:03 10° SSE
COSMOS 2455 3.1 23:29:06 10° NW 23:35:09 73° NE 23:41:12 10° SE
Cosmos 1470 Rocket 3.9 23:32:29 10° SSE 23:36:39 47° E 23:40:49 10° NNE
Okean 1-7 4.4 23:34:09 10° N 23:37:54 28° ENE 23:41:36 10° SE
Cosmos 1933 Rocket 4.0 23:33:53 10° SSE 23:38:11 48° E 23:42:30 10° NNE
ATLAS 2AS CENTAUR R/B 4.2 23:33:27 10° SSE 23:39:11 23° ESE 23:45:09 10° ENE
GEOS 3 Rocket 3.7 23:36:18 10° SE 23:41:32 80° SW 23:46:45 10° NW
Cosmos 1937 Rocket 4.0 23:37:59 10° S 23:42:55 43° ESE 23:47:51 10° NE
Cosmos 2181 Rocket 4.4 23:38:07 10° N 23:44:23 57° ENE 23:50:41 10° SSE
Cosmos 1271 Rocket 3.6 23:42:03 10° NNW 23:45:40 43° W 23:49:20 10° SSW
Cosmos 1980 3.9 23:40:32 10° NW 23:46:11 68° WSW 23:51:46 10° SSE
SL-14 R/B 3.6 23:42:37 10° SSW 23:46:35 68° WNW 23:50:37 10° N
Cosmos 1703 3.2 23:43:38 10° S 23:47:33 78° E 23:51:29 10° NNE
H-2A R/B 2.9 23:42:26 10° S 23:47:38 50° W 23:52:57 10° NNW
IGS 5A 4.2 23:44:38 10° S 23:48:41 48° W 23:52:46 10° NNW
Cosmos 1269 Rocket 4.2 23:45:29 10° NNW 23:50:50 72° ENE 23:56:09 10° SE
Cosmos 389 Rocket 4.0 23:48:52 10° N 23:52:06 29° ENE 23:55:16 10° SE
Cosmos 1726 4.0 23:49:06 10° NNW 23:52:17 26° W 23:55:29 10° SSW
